| time (UTC) | temp C | wind direction | speed KPH | gust KPH | rain 1hr cm | rain 24hr cm | rain mn cm | humidity % | barometer mb |
| 20260509150504 | 22 | 128 | 0.0 | 1.6 | 0.00 | 0.00 | 0.00 | 79 | 1013.7 |
| 20260509150007 | 22 | 158 | 0.0 | 1.6 | 0.00 | 0.00 | 0.00 | 79 | 1013.8 |
| 20260509145505 | 22 | 184 | 0.0 | 1.6 | 0.00 | 0.00 | 0.00 | 79 | 1013.8 |
| 20260509145005 | 22 | 238 | 0.0 | 0.0 | 0.00 | 0.00 | 0.00 | 80 | 1013.7 |
| 20260509144512 | 22 | 238 | 0.0 | 1.6 | 0.00 | 0.00 | 0.00 | 80 | 1013.6 |
| 20260509144007 | 22 | 238 | 0.0 | 1.6 | 0.00 | 0.00 | 0.00 | 79 | 1013.6 |
| 20260509143506 | 22 | 277 | 0.0 | 1.6 | 0.00 | 0.00 | 0.00 | 80 | 1013.5 |
| 20260509143018 | 22 | 170 | 0.0 | 1.6 | 0.00 | 0.00 | 0.00 | 80 | 1013.5 |
| 20260509142508 | 22 | 232 | 0.0 | 0.0 | 0.00 | 0.00 | 0.00 | 80 | 1013.4 |
| 20260509142009 | 22 | 92 | 0.0 | 0.0 | 0.00 | 0.00 | 0.00 | 81 | 1013.2 |
| 20260509141530 | 22 | 92 | 0.0 | 0.0 | 0.00 | 0.00 | 0.00 | 80 | 1013.3 |
| 20260509141010 | 22 | 92 | 0.0 | 0.0 | 0.00 | 0.00 | 0.00 | 81 | 1013.2 |
| 20260509140510 | 22 | 53 | 0.0 | 0.0 | 0.00 | 0.00 | 0.00 | 81 | 1013.2 |
| 20260509140006 | 22 | 53 | 0.0 | 0.0 | 0.00 | 0.00 | 0.00 | 80 | 1013.4 |
| 20260509135505 | 22 | 53 | 0.0 | 0.0 | 0.00 | 0.00 | 0.00 | 81 | 1013.4 |
| 20260509135006 | 22 | 53 | 0.0 | 0.0 | 0.00 | 0.00 | 0.00 | 81 | 1013.3 |
| 20260509134507 | 22 | 53 | 0.0 | 0.0 | 0.00 | 0.00 | 0.00 | 82 | 1013.4 |
| 20260509134005 | 21 | 53 | 0.0 | 0.0 | 0.00 | 0.00 | 0.00 | 81 | 1013.3 |
| 20260509133505 | 21 | 53 | 0.0 | 0.0 | 0.00 | 0.00 | 0.00 | 82 | 1013.4 |
| 20260509133015 | 21 | 53 | 0.0 | 0.0 | 0.00 | 0.00 | 0.00 | 82 | 1013.5 |
| 20260509132507 | 21 | 53 | 0.0 | 0.0 | 0.00 | 0.00 | 0.00 | 82 | 1013.4 |
| 20260509132007 | 21 | 53 | 0.0 | 0.0 | 0.00 | 0.00 | 0.00 | 82 | 1013.6 |
| 20260509131521 | 21 | 53 | 0.0 | 0.0 | 0.00 | 0.00 | 0.00 | 82 | 1013.7 |
| 20260509131011 | 21 | 53 | 0.0 | 0.0 | 0.00 | 0.00 | 0.00 | 83 | 1013.7 |
| 20260509130509 | 21 | 53 | 0.0 | 0.0 | 0.00 | 0.00 | 0.00 | 83 | 1013.7 |
| 20260509130024 | 21 | 53 | 0.0 | 0.0 | 0.00 | 0.00 | 0.00 | 83 | 1013.7 |
| 20260509125512 | 21 | 53 | 0.0 | 0.0 | 0.00 | 0.00 | 0.00 | 83 | 1013.7 |
| 20260509125012 | 21 | 53 | 0.0 | 0.0 | 0.00 | 0.00 | 0.00 | 83 | 1013.7 |
| 20260509124506 | 21 | 53 | 0.0 | 0.0 | 0.00 | 0.00 | 0.00 | 84 | 1013.8 |
| 20260509124007 | 20 | 27 | 0.0 | 0.0 | 0.00 | 0.00 | 0.00 | 84 | 1013.8 |
| 20260509123507 | 20 | 27 | 0.0 | 0.0 | 0.00 | 0.00 | 0.00 | 85 | 1013.8 |
| 20260509123012 | 20 | 30 | 0.0 | 0.0 | 0.00 | 0.00 | 0.00 | 86 | 1013.8 |
| 20260509122505 | 20 | 22 | 0.0 | 0.0 | 0.00 | 0.00 | 0.00 | 86 | 1013.8 |
| 20260509122008 | 20 | 285 | 0.0 | 0.0 | 0.00 | 0.00 | 0.00 | 87 | 1013.8 |
| 20260509121517 | 20 | 285 | 0.0 | 0.0 | 0.00 | 0.00 | 0.00 | 87 | 1013.7 |
| 20260509121010 | 19 | 285 | 0.0 | 1.6 | 0.00 | 0.00 | 0.00 | 87 | 1013.8 |
| 20260509120509 | 19 | 285 | 0.0 | 1.6 | 0.00 | 0.00 | 0.00 | 88 | 1013.6 |
| 20260509120023 | 19 | 285 | 0.0 | 1.6 | 0.00 | 0.00 | 0.00 | 89 | 1013.5 |
| 20260509115507 | 18 | 285 | 0.0 | 1.6 | 0.00 | 0.00 | 0.00 | 89 | 1013.4 |
| 20260509115012 | 18 | 285 | 0.0 | 0.0 | 0.00 | 0.00 | 0.00 | 90 | 1013.4 |
| 20260509114529 | 18 | 285 | 0.0 | 0.0 | 0.00 | 0.00 | 0.00 | 90 | 1013.3 |
| 20260509114010 | 18 | 285 | 0.0 | 0.0 | 0.00 | 0.00 | 0.00 | 89 | 1013.2 |
| 20260509113510 | 18 | 285 | 0.0 | 0.0 | 0.00 | 0.00 | 0.00 | 89 | 1013.2 |
| 20260509113008 | 17 | 285 | 0.0 | 0.0 | 0.00 | 0.00 | 0.00 | 89 | 1013.4 |
| 20260509112505 | 17 | 285 | 0.0 | 0.0 | 0.00 | 0.00 | 0.00 | 89 | 1013.3 |
| 20260509112006 | 17 | 285 | 0.0 | 0.0 | 0.00 | 0.00 | 0.00 | 89 | 1013.2 |
| 20260509111515 | 17 | 285 | 0.0 | 1.6 | 0.00 | 0.00 | 0.00 | 89 | 1013.2 |
| 20260509111007 | 17 | 285 | 0.0 | 1.6 | 0.00 | 0.00 | 0.00 | 88 | 1013.1 |
| 20260509110510 | 17 | 5 | 0.0 | 0.0 | 0.00 | 0.00 | 0.00 | 88 | 1013.2 |
| 20260509110020 | 17 | 5 | 0.0 | 0.0 | 0.00 | 0.00 | 0.00 | 88 | 1013.0 |
| 20260509105507 | 17 | 5 | 0.0 | 0.0 | 0.00 | 0.00 | 0.00 | 88 | 1013.1 |
| 20260509105007 | 17 | 5 | 0.0 | 0.0 | 0.00 | 0.00 | 0.00 | 88 | 1012.9 |
| 20260509104522 | 17 | 5 | 0.0 | 0.0 | 0.00 | 0.00 | 0.00 | 87 | 1012.8 |
| 20260509104008 | 17 | 5 | 0.0 | 0.0 | 0.00 | 0.00 | 0.00 | 87 | 1012.8 |
| 20260509103508 | 17 | 5 | 0.0 | 0.0 | 0.00 | 0.00 | 0.00 | 87 | 1012.8 |
| 20260509103025 | 17 | 5 | 0.0 | 0.0 | 0.00 | 0.00 | 0.00 | 87 | 1012.6 |
| 20260509102509 | 17 | 5 | 0.0 | 0.0 | 0.00 | 0.00 | 0.00 | 87 | 1012.5 |
| 20260509102011 | 17 | 5 | 0.0 | 0.0 | 0.00 | 0.00 | 0.00 | 87 | 1012.5 |
| 20260509101514 | 17 | 5 | 0.0 | 0.0 | 0.00 | 0.00 | 0.00 | 87 | 1012.6 |
| 20260509101003 | 17 | 5 | 0.0 | 0.0 | 0.00 | 0.00 | 0.00 | 87 | 1012.7 |
| 20260509100504 | 17 | 5 | 0.0 | 0.0 | 0.00 | 0.00 | 0.00 | 87 | 1012.5 |
| 20260509100020 | 18 | 5 | 0.0 | 0.0 | 0.00 | 0.00 | 0.00 | 87 | 1012.5 |
| 20260509095510 | 18 | 5 | 0.0 | 0.0 | 0.00 | 0.00 | 0.00 | 87 | 1012.7 |
| 20260509095010 | 18 | 5 | 0.0 | 0.0 | 0.00 | 0.00 | 0.00 | 87 | 1012.8 |
| 20260509094526 | 18 | 5 | 0.0 | 0.0 | 0.00 | 0.00 | 0.00 | 87 | 1012.7 |
| 20260509094008 | 18 | 5 | 0.0 | 0.0 | 0.00 | 0.00 | 0.00 | 87 | 1012.6 |
| 20260509093508 | 18 | 5 | 0.0 | 0.0 | 0.00 | 0.00 | 0.00 | 86 | 1012.4 |
| 20260509093026 | 18 | 5 | 0.0 | 0.0 | 0.00 | 0.00 | 0.00 | 86 | 1012.5 |
| 20260509092510 | 18 | 5 | 0.0 | 0.0 | 0.00 | 0.00 | 0.00 | 86 | 1012.6 |
| 20260509092010 | 18 | 5 | 0.0 | 0.0 | 0.00 | 0.00 | 0.00 | 86 | 1012.6 |
| 20260509091526 | 18 | 5 | 0.0 | 0.0 | 0.00 | 0.00 | 0.00 | 85 | 1012.9 |
| 20260509091011 | 18 | 5 | 0.0 | 0.0 | 0.00 | 0.00 | 0.00 | 85 | 1012.9 |
| 20260509090510 | 18 | 5 | 0.0 | 0.0 | 0.00 | 0.00 | 0.00 | 85 | 1013.0 |
| 20260509090018 | 18 | 5 | 0.0 | 0.0 | 0.00 | 0.00 | 0.00 | 85 | 1013.0 |
| 20260509085503 | 18 | 5 | 0.0 | 0.0 | 0.00 | 0.00 | 0.00 | 85 | 1012.8 |
| 20260509085008 | 18 | 5 | 0.0 | 0.0 | 0.00 | 0.00 | 0.00 | 85 | 1013.0 |
| 20260509084520 | 18 | 5 | 0.0 | 0.0 | 0.00 | 0.00 | 0.00 | 85 | 1012.9 |
| 20260509084009 | 18 | 5 | 0.0 | 0.0 | 0.00 | 0.00 | 0.00 | 85 | 1012.8 |
| 20260509083505 | 18 | 5 | 0.0 | 1.6 | 0.00 | 0.00 | 0.00 | 85 | 1012.9 |
| 20260509083026 | 18 | 5 | 0.0 | 1.6 | 0.00 | 0.00 | 0.00 | 86 | 1013.1 |
| 20260509082509 | 18 | 5 | 0.0 | 1.6 | 0.00 | 0.00 | 0.00 | 86 | 1013.2 |
| 20260509082008 | 18 | 5 | 0.0 | 1.6 | 0.00 | 0.00 | 0.00 | 86 | 1013.2 |
| 20260509081529 | 18 | 5 | 0.0 | 1.6 | 0.00 | 0.00 | 0.00 | 86 | 1013.2 |
| 20260509081009 | 18 | 5 | 0.0 | 0.0 | 0.00 | 0.00 | 0.00 | 85 | 1013.1 |
| 20260509080508 | 18 | 5 | 0.0 | 0.0 | 0.00 | 0.00 | 0.00 | 85 | 1012.8 |
| 20260509080026 | 18 | 5 | 0.0 | 0.0 | 0.00 | 0.00 | 0.00 | 85 | 1013.0 |
| 20260509075507 | 18 | 5 | 0.0 | 0.0 | 0.00 | 0.00 | 0.00 | 85 | 1013.2 |
| 20260509075011 | 18 | 5 | 0.0 | 0.0 | 0.00 | 0.00 | 0.00 | 85 | 1013.2 |
| 20260509074520 | 18 | 5 | 0.0 | 0.0 | 0.00 | 0.00 | 0.00 | 85 | 1013.3 |
| 20260509074007 | 18 | 5 | 0.0 | 1.6 | 0.00 | 0.00 | 0.00 | 85 | 1013.6 |
| 20260509073513 | 18 | 5 | 0.0 | 1.6 | 0.00 | 0.00 | 0.00 | 85 | 1013.5 |
| 20260509073033 | 18 | 5 | 0.0 | 0.0 | 0.00 | 0.00 | 0.00 | 85 | 1013.2 |
| 20260509072504 | 18 | 5 | 0.0 | 0.0 | 0.00 | 0.00 | 0.00 | 84 | 1013.2 |
| 20260509072002 | 18 | 5 | 0.0 | 0.0 | 0.00 | 0.00 | 0.00 | 84 | 1013.0 |
| 20260509071507 | 18 | 5 | 0.0 | 3.2 | 0.00 | 0.00 | 0.00 | 84 | 1012.8 |
| 20260509071002 | 18 | 5 | 0.0 | 3.2 | 0.00 | 0.00 | 0.00 | 84 | 1012.7 |
| 20260509070502 | 18 | 55 | 0.0 | 0.0 | 0.00 | 0.00 | 0.00 | 84 | 1012.7 |
| 20260509070010 | 18 | 55 | 0.0 | 0.0 | 0.00 | 0.00 | 0.00 | 84 | 1012.9 |
| 20260509065505 | 18 | 55 | 0.0 | 0.0 | 0.00 | 0.00 | 0.00 | 84 | 1013.1 |
| 20260509065006 | 18 | 55 | 0.0 | 0.0 | 0.00 | 0.00 | 0.00 | 83 | 1013.2 |
| 20260509064515 | 19 | 55 | 0.0 | 1.6 | 0.00 | 0.00 | 0.00 | 83 | 1013.3 |
| 20260509064011 | 19 | 55 | 0.0 | 1.6 | 0.00 | 0.00 | 0.00 | 83 | 1013.4 |
| 20260509063509 | 19 | 55 | 0.0 | 1.6 | 0.00 | 0.00 | 0.00 | 82 | 1013.6 |
| 20260509063028 | 19 | 55 | 0.0 | 0.0 | 0.00 | 0.00 | 0.00 | 82 | 1013.6 |
| 20260509062512 | 19 | 55 | 0.0 | 1.6 | 0.00 | 0.00 | 0.00 | 81 | 1013.8 |
| 20260509062010 | 19 | 55 | 0.0 | 1.6 | 0.00 | 0.00 | 0.00 | 81 | 1013.9 |
| 20260509061526 | 19 | 55 | 0.0 | 3.2 | 0.00 | 0.00 | 0.00 | 81 | 1013.7 |
| 20260509061004 | 19 | 55 | 0.0 | 3.2 | 0.00 | 0.00 | 0.00 | 81 | 1013.4 |
| 20260509060502 | 19 | 55 | 0.0 | 3.2 | 0.00 | 0.00 | 0.00 | 81 | 1013.6 |
| 20260509060007 | 19 | 24 | 0.0 | 1.6 | 0.00 | 0.00 | 0.00 | 81 | 1013.8 |
| 20260509055502 | 19 | 18 | 0.0 | 1.6 | 0.00 | 0.00 | 0.00 | 81 | 1014.2 |
| 20260509055006 | 18 | 18 | 0.0 | 0.0 | 0.00 | 0.00 | 0.00 | 81 | 1013.9 |
| 20260509054511 | 18 | 18 | 0.0 | 0.0 | 0.00 | 0.00 | 0.00 | 81 | 1013.9 |
| 20260509054008 | 18 | 18 | 0.0 | 1.6 | 0.00 | 0.00 | 0.00 | 81 | 1013.8 |
| 20260509053509 | 18 | 18 | 0.0 | 1.6 | 0.00 | 0.00 | 0.00 | 81 | 1013.9 |
| 20260509053029 | 18 | 5 | 0.0 | 0.0 | 0.00 | 0.00 | 0.00 | 82 | 1014.0 |
| 20260509052506 | 18 | 5 | 0.0 | 0.0 | 0.00 | 0.00 | 0.00 | 81 | 1014.3 |
| 20260509052013 | 18 | 5 | 0.0 | 0.0 | 0.00 | 0.00 | 0.00 | 80 | 1014.5 |
| 20260509051523 | 18 | 5 | 0.0 | 0.0 | 0.00 | 0.00 | 0.00 | 80 | 1014.8 |
| 20260509051007 | 18 | 5 | 0.0 | 0.0 | 0.00 | 0.00 | 0.00 | 80 | 1015.0 |
| 20260509050511 | 18 | 5 | 0.0 | 0.0 | 0.00 | 0.00 | 0.00 | 80 | 1015.1 |
| 20260509050024 | 18 | 5 | 0.0 | 0.0 | 0.00 | 0.00 | 0.00 | 80 | 1015.2 |
| 20260509045503 | 18 | 5 | 0.0 | 0.0 | 0.00 | 0.00 | 0.00 | 80 | 1015.3 |
| 20260509045002 | 18 | 5 | 0.0 | 0.0 | 0.00 | 0.00 | 0.00 | 79 | 1015.4 |
| 20260509044509 | 18 | 5 | 0.0 | 0.0 | 0.00 | 0.00 | 0.00 | 79 | 1015.2 |
| 20260509044009 | 18 | 5 | 0.0 | 0.0 | 0.00 | 0.00 | 0.00 | 79 | 1015.3 |
| 20260509043505 | 18 | 5 | 0.0 | 3.2 | 0.00 | 0.00 | 0.00 | 80 | 1015.2 |
| 20260509043035 | 18 | 5 | 0.0 | 3.2 | 0.00 | 0.00 | 0.00 | 80 | 1015.1 |
| 20260509042504 | 18 | 37 | 0.0 | 1.6 | 0.00 | 0.00 | 0.00 | 80 | 1014.7 |
| 20260509042011 | 18 | 37 | 0.0 | 0.0 | 0.00 | 0.00 | 0.00 | 80 | 1014.8 |
| 20260509041520 | 18 | 37 | 0.0 | 0.0 | 0.00 | 0.00 | 0.00 | 80 | 1015.1 |
| 20260509041011 | 18 | 37 | 0.0 | 0.0 | 0.00 | 0.00 | 0.00 | 79 | 1015.4 |
| 20260509040512 | 18 | 37 | 0.0 | 0.0 | 0.00 | 0.00 | 0.00 | 79 | 1015.6 |
| 20260509040027 | 18 | 37 | 0.0 | 0.0 | 0.00 | 0.00 | 0.00 | 79 | 1015.8 |
| 20260509035516 | 18 | 37 | 0.0 | 0.0 | 0.00 | 0.00 | 0.00 | 79 | 1015.7 |
| 20260509035012 | 18 | 37 | 0.0 | 0.0 | 0.00 | 0.00 | 0.00 | 79 | 1015.8 |
| 20260509034527 | 18 | 37 | 0.0 | 0.0 | 0.00 | 0.00 | 0.00 | 78 | 1016.0 |
| 20260509034005 | 18 | 37 | 0.0 | 0.0 | 0.00 | 0.00 | 0.00 | 78 | 1015.9 |
| 20260509033505 | 18 | 37 | 0.0 | 0.0 | 0.00 | 0.00 | 0.00 | 78 | 1015.9 |
| 20260509033010 | 18 | 37 | 0.0 | 0.0 | 0.00 | 0.00 | 0.00 | 78 | 1015.9 |
| 20260509032506 | 18 | 37 | 0.0 | 0.0 | 0.00 | 0.00 | 0.00 | 78 | 1015.8 |
| 20260509032008 | 18 | 37 | 0.0 | 0.0 | 0.00 | 0.00 | 0.00 | 77 | 1015.9 |
| 20260509031518 | 18 | 37 | 0.0 | 0.0 | 0.00 | 0.00 | 0.00 | 77 | 1016.0 |
| 20260509031011 | 18 | 37 | 0.0 | 0.0 | 0.00 | 0.00 | 0.00 | 77 | 1016.0 |
| 20260509030508 | 18 | 37 | 0.0 | 0.0 | 0.00 | 0.00 | 0.00 | 77 | 1016.0 |
| 20260509030020 | 18 | 37 | 0.0 | 0.0 | 0.00 | 0.00 | 0.00 | 77 | 1016.0 |
| 20260509025507 | 18 | 37 | 0.0 | 0.0 | 0.00 | 0.00 | 0.00 | 77 | 1016.0 |
| 20260509025011 | 18 | 37 | 0.0 | 1.6 | 0.00 | 0.00 | 0.00 | 77 | 1016.2 |
| 20260509024526 | 18 | 37 | 0.0 | 1.6 | 0.00 | 0.00 | 0.00 | 76 | 1016.1 |
| 20260509024011 | 18 | 37 | 0.0 | 1.6 | 0.00 | 0.00 | 0.00 | 76 | 1015.9 |
| 20260509023510 | 18 | 37 | 0.0 | 0.0 | 0.00 | 0.00 | 0.00 | 75 | 1015.8 |
| 20260509023027 | 18 | 37 | 0.0 | 0.0 | 0.00 | 0.00 | 0.00 | 75 | 1015.8 |
| 20260509022504 | 18 | 37 | 0.0 | 0.0 | 0.00 | 0.00 | 0.00 | 75 | 1015.7 |
| 20260509022006 | 18 | 37 | 0.0 | 0.0 | 0.00 | 0.00 | 0.00 | 75 | 1015.7 |
| 20260509021514 | 18 | 37 | 0.0 | 0.0 | 0.00 | 0.00 | 0.00 | 75 | 1015.6 |
| 20260509021007 | 18 | 37 | 0.0 | 0.0 | 0.00 | 0.00 | 0.00 | 75 | 1015.6 |
| 20260509020509 | 18 | 37 | 0.0 | 0.0 | 0.00 | 0.00 | 0.00 | 75 | 1015.5 |
| 20260509020019 | 18 | 37 | 0.0 | 0.0 | 0.00 | 0.00 | 0.00 | 74 | 1015.8 |
| 20260509015507 | 18 | 37 | 0.0 | 0.0 | 0.00 | 0.00 | 0.00 | 74 | 1015.8 |
| 20260509015008 | 18 | 37 | 0.0 | 0.0 | 0.00 | 0.00 | 0.00 | 74 | 1015.7 |
| 20260509014528 | 18 | 37 | 0.0 | 0.0 | 0.00 | 0.00 | 0.00 | 74 | 1015.7 |
| 20260509014007 | 18 | 37 | 0.0 | 0.0 | 0.00 | 0.00 | 0.00 | 73 | 1015.6 |
| 20260509013512 | 18 | 37 | 0.0 | 0.0 | 0.00 | 0.00 | 0.00 | 73 | 1015.6 |
| 20260509013025 | 18 | 37 | 0.0 | 0.0 | 0.00 | 0.00 | 0.00 | 73 | 1015.5 |
| 20260509012510 | 18 | 37 | 0.0 | 0.0 | 0.00 | 0.00 | 0.00 | 73 | 1015.4 |
| 20260509012010 | 18 | 37 | 0.0 | 0.0 | 0.00 | 0.00 | 0.00 | 72 | 1015.5 |
| 20260509011524 | 18 | 37 | 0.0 | 0.0 | 0.00 | 0.00 | 0.00 | 73 | 1015.6 |
| 20260509011008 | 18 | 37 | 0.0 | 0.0 | 0.00 | 0.00 | 0.00 | 72 | 1015.7 |
| 20260509010507 | 19 | 37 | 0.0 | 0.0 | 0.00 | 0.00 | 0.00 | 72 | 1015.5 |
| 20260509010025 | 19 | 37 | 0.0 | 1.6 | 0.00 | 0.00 | 0.00 | 72 | 1015.5 |
| 20260509005508 | 19 | 37 | 0.0 | 1.6 | 0.00 | 0.00 | 0.00 | 71 | 1015.6 |
| 20260509005007 | 19 | 37 | 0.0 | 3.2 | 0.00 | 0.00 | 0.00 | 71 | 1015.4 |
| 20260509004523 | 19 | 37 | 0.0 | 3.2 | 0.00 | 0.00 | 0.00 | 71 | 1015.4 |
| 20260509004010 | 19 | 275 | 0.0 | 1.6 | 0.00 | 0.00 | 0.00 | 71 | 1015.4 |
| 20260509003509 | 19 | 94 | 0.0 | 1.6 | 0.00 | 0.00 | 0.00 | 71 | 1015.4 |
| 20260509003025 | 19 | 94 | 0.0 | 3.2 | 0.00 | 0.00 | 0.00 | 70 | 1015.3 |
| 20260509002508 | 19 | 94 | 0.0 | 3.2 | 0.00 | 0.00 | 0.00 | 70 | 1015.1 |
| 20260509002010 | 19 | 146 | 0.0 | 3.2 | 0.00 | 0.00 | 0.00 | 70 | 1015.1 |
| 20260509001529 | 19 | 76 | 0.0 | 4.8 | 0.00 | 0.00 | 0.00 | 70 | 1015.0 |
| 20260509001009 | 19 | 94 | 0.0 | 4.8 | 0.00 | 0.00 | 0.00 | 70 | 1015.0 |
| 20260509000506 | 19 | 94 | 0.0 | 4.8 | 0.00 | 0.00 | 0.00 | 69 | 1015.0 |
| 20260509000027 | 19 | 43 | 0.0 | 3.2 | 0.00 | 0.00 | 0.00 | 69 | 1015.0 |
| 20260508235508 | 19 | 47 | 0.0 | 3.2 | 0.00 | 0.00 | 0.00 | 70 | 1015.0 |
| 20260508235007 | 19 | 47 | 0.0 | 3.2 | 0.00 | 0.00 | 0.00 | 69 | 1015.0 |
| 20260508234518 | 19 | 69 | 0.0 | 6.4 | 0.00 | 0.00 | 0.00 | 69 | 1014.9 |
| 20260508234008 | 19 | 65 | 0.0 | 6.4 | 0.00 | 0.00 | 0.00 | 69 | 1014.9 |
| 20260508233508 | 19 | 53 | 0.0 | 4.8 | 0.00 | 0.00 | 0.00 | 69 | 1014.8 |
| 20260508233026 | 19 | 233 | 0.0 | 3.2 | 0.00 | 0.00 | 0.00 | 69 | 1014.7 |
| 20260508232508 | 19 | 234 | 0.0 | 4.8 | 0.00 | 0.00 | 0.00 | 69 | 1014.8 |
| 20260508232010 | 19 | 59 | 0.0 | 6.4 | 0.00 | 0.00 | 0.00 | 69 | 1014.9 |
| 20260508231524 | 19 | 31 | 0.0 | 6.4 | 0.00 | 0.00 | 0.00 | 69 | 1015.1 |
| 20260508231013 | 20 | 120 | 0.0 | 3.2 | 0.00 | 0.00 | 0.00 | 69 | 1015.1 |
| 20260508230510 | 20 | 70 | 0.0 | 3.2 | 0.00 | 0.00 | 0.00 | 69 | 1015.0 |
| 20260508230027 | 20 | 84 | 0.0 | 3.2 | 0.00 | 0.00 | 0.00 | 69 | 1015.0 |
| 20260508225511 | 20 | 84 | 0.0 | 6.4 | 0.00 | 0.00 | 0.00 | 70 | 1015.0 |
| 20260508225016 | 19 | 78 | 0.0 | 8.0 | 0.00 | 0.00 | 0.00 | 69 | 1015.0 |
| 20260508224529 | 20 | 5 | 0.0 | 8.0 | 0.00 | 0.00 | 0.00 | 70 | 1014.8 |
| 20260508224009 | 20 | 78 | 1.6 | 4.8 | 0.00 | 0.00 | 0.00 | 70 | 1014.6 |
| 20260508223509 | 20 | 49 | 0.0 | 4.8 | 0.00 | 0.00 | 0.00 | 69 | 1014.9 |
| 20260508223018 | 20 | 74 | 0.0 | 4.8 | 0.00 | 0.00 | 0.00 | 70 | 1014.9 |
| 20260508222512 | 20 | 73 | 0.0 | 4.8 | 0.00 | 0.00 | 0.00 | 70 | 1014.7 |
| 20260508222010 | 20 | 94 | 0.0 | 3.2 | 0.00 | 0.00 | 0.00 | 70 | 1014.7 |
| 20260508221525 | 20 | 96 | 0.0 | 4.8 | 0.00 | 0.00 | 0.00 | 69 | 1014.9 |
| 20260508221011 | 20 | 100 | 0.0 | 4.8 | 0.00 | 0.00 | 0.00 | 69 | 1015.0 |
| 20260508220507 | 20 | 72 | 0.0 | 3.2 | 0.00 | 0.00 | 0.00 | 70 | 1015.1 |
| 20260508220026 | 20 | 67 | 0.0 | 3.2 | 0.00 | 0.00 | 0.00 | 69 | 1015.0 |
| 20260508215509 | 20 | 88 | 0.0 | 3.2 | 0.00 | 0.00 | 0.00 | 69 | 1014.7 |
| 20260508215013 | 20 | 76 | 0.0 | 4.8 | 0.00 | 0.00 | 0.00 | 69 | 1014.8 |
| 20260508214532 | 20 | 93 | 1.6 | 4.8 | 0.00 | 0.00 | 0.00 | 69 | 1014.9 |
| 20260508214008 | 20 | 82 | 0.0 | 4.8 | 0.00 | 0.00 | 0.00 | 68 | 1014.8 |
| 20260508213507 | 20 | 78 | 0.0 | 4.8 | 0.00 | 0.00 | 0.00 | 68 | 1014.9 |
| 20260508213026 | 20 | 51 | 0.0 | 3.2 | 0.00 | 0.00 | 0.00 | 68 | 1015.0 |
| 20260508212509 | 20 | 94 | 0.0 | 6.4 | 0.00 | 0.00 | 0.00 | 68 | 1015.2 |
| 20260508212014 | 20 | 200 | 0.0 | 6.4 | 0.00 | 0.00 | 0.00 | 68 | 1015.3 |
| 20260508211524 | 20 | 111 | 0.0 | 6.4 | 0.00 | 0.00 | 0.00 | 68 | 1015.2 |
| 20260508211010 | 20 | 71 | 1.6 | 8.0 | 0.00 | 0.00 | 0.00 | 69 | 1015.1 |
| 20260508210511 | 20 | 57 | 0.0 | 8.0 | 0.00 | 0.00 | 0.00 | 68 | 1015.0 |
| 20260508210033 | 20 | 132 | 1.6 | 6.4 | 0.00 | 0.00 | 0.00 | 68 | 1014.8 |
| 20260508205516 | 20 | 98 | 1.6 | 4.8 | 0.00 | 0.00 | 0.00 | 68 | 1014.8 |
| 20260508205012 | 20 | 69 | 0.0 | 6.4 | 0.00 | 0.00 | 0.00 | 67 | 1014.9 |
| 20260508204532 | 20 | 105 | 0.0 | 9.7 | 0.00 | 0.00 | 0.00 | 67 | 1014.8 |
| 20260508204011 | 20 | 55 | 1.6 | 9.7 | 0.00 | 0.00 | 0.00 | 66 | 1014.8 |
| 20260508203509 | 20 | 55 | 1.6 | 6.4 | 0.00 | 0.00 | 0.00 | 67 | 1014.8 |
| 20260508203032 | 20 | 87 | 0.0 | 6.4 | 0.00 | 0.00 | 0.00 | 66 | 1014.8 |
| 20260508202510 | 20 | 111 | 1.6 | 11.3 | 0.00 | 0.00 | 0.00 | 66 | 1014.7 |
| 20260508202008 | 20 | 48 | 1.6 | 11.3 | 0.00 | 0.00 | 0.00 | 64 | 1014.9 |
| 20260508201528 | 21 | 28 | 3.2 | 6.4 | 0.00 | 0.00 | 0.00 | 63 | 1015.0 |
| 20260508201009 | 21 | 192 | 0.0 | 8.0 | 0.00 | 0.00 | 0.00 | 63 | 1015.1 |
| 20260508200509 | 21 | 92 | 1.6 | 8.0 | 0.00 | 0.00 | 0.00 | 65 | 1015.3 |
| 20260508200024 | 21 | 94 | 0.0 | 9.7 | 0.00 | 0.00 | 0.00 | 65 | 1015.3 |
| 20260508195510 | 21 | 152 | 1.6 | 9.7 | 0.00 | 0.00 | 0.00 | 63 | 1015.3 |
| 20260508195007 | 21 | 67 | 3.2 | 16.1 | 0.00 | 0.00 | 0.00 | 62 | 1015.5 |
| 20260508194527 | 21 | 183 | 3.2 | 16.1 | 0.00 | 0.00 | 0.00 | 63 | 1015.6 |
| 20260508194008 | 21 | 194 | 1.6 | 9.7 | 0.00 | 0.03 | 0.00 | 62 | 1015.6 |
| 20260508193509 | 21 | 146 | 1.6 | 9.7 | 0.00 | 0.03 | 0.00 | 62 | 1015.6 |
| 20260508193028 | 21 | 65 | 1.6 | 9.7 | 0.00 | 0.03 | 0.00 | 63 | 1015.3 |
| 20260508192509 | 21 | 89 | 3.2 | 8.0 | 0.00 | 0.05 | 0.00 | 62 | 1015.3 |
| 20260508192009 | 21 | 80 | 1.6 | 12.9 | 0.00 | 0.13 | 0.00 | 62 | 1015.5 |
| 20260508191517 | 21 | 68 | 3.2 | 12.9 | 0.00 | 0.13 | 0.00 | 62 | 1015.6 |
| 20260508191008 | 21 | 51 | 4.8 | 12.9 | 0.00 | 0.13 | 0.00 | 60 | 1015.6 |
| 20260508190507 | 21 | 96 | 1.6 | 6.4 | 0.00 | 0.13 | 0.00 | 61 | 1015.6 |
| 20260508190004 | 22 | 225 | 1.6 | 11.3 | 0.00 | 0.13 | 0.00 | 61 | 1015.6 |
| 20260508185506 | 22 | 114 | 3.2 | 11.3 | 0.00 | 0.13 | 0.00 | 60 | 1015.6 |
| 20260508185005 | 22 | 115 | 4.8 | 9.7 | 0.00 | 0.13 | 0.00 | 59 | 1015.7 |
| 20260508184509 | 22 | 114 | 1.6 | 6.4 | 0.00 | 0.13 | 0.00 | 61 | 1015.7 |
| 20260508184002 | 22 | 112 | 3.2 | 6.4 | 0.00 | 0.13 | 0.00 | 61 | 1015.9 |
| 20260508183504 | 22 | 152 | 1.6 | 8.0 | 0.00 | 0.13 | 0.00 | 61 | 1015.9 |
| 20260508183010 | 22 | 190 | 1.6 | 9.7 | 0.00 | 0.13 | 0.00 | 61 | 1015.8 |
| 20260508182504 | 22 | 111 | 1.6 | 9.7 | 0.00 | 0.13 | 0.00 | 60 | 1015.8 |
| 20260508182005 | 22 | 246 | 3.2 | 12.9 | 0.00 | 0.13 | 0.00 | 60 | 1016.0 |
| 20260508181518 | 22 | 67 | 4.8 | 12.9 | 0.00 | 0.13 | 0.00 | 59 | 1016.1 |
| 20260508181010 | 22 | 104 | 1.6 | 6.4 | 0.00 | 0.13 | 0.00 | 59 | 1016.2 |
| 20260508180508 | 22 | 121 | 3.2 | 12.9 | 0.00 | 0.13 | 0.00 | 58 | 1016.2 |
| 20260508180020 | 23 | 80 | 1.6 | 12.9 | 0.00 | 0.13 | 0.00 | 58 | 1016.3 |
| 20260508175513 | 23 | 94 | 1.6 | 6.4 | 0.00 | 0.13 | 0.00 | 59 | 1016.4 |
| 20260508175004 | 23 | 151 | 1.6 | 9.7 | 0.00 | 0.13 | 0.00 | 57 | 1016.4 |
| 20260508174504 | 23 | 186 | 3.2 | 9.7 | 0.00 | 0.13 | 0.00 | 56 | 1016.3 |
| 20260508174005 | 23 | 109 | 1.6 | 8.0 | 0.00 | 0.13 | 0.00 | 58 | 1016.4 |
| 20260508173505 | 23 | 83 | 3.2 | 8.0 | 0.00 | 0.13 | 0.00 | 56 | 1016.4 |
| 20260508173008 | 23 | 171 | 3.2 | 9.7 | 0.00 | 0.13 | 0.00 | 54 | 1016.5 |
| 20260508172503 | 23 | 128 | 3.2 | 9.7 | 0.00 | 0.13 | 0.00 | 56 | 1016.7 |
| 20260508172004 | 23 | 105 | 1.6 | 9.7 | 0.00 | 0.13 | 0.00 | 53 | 1016.7 |
| 20260508171512 | 23 | 111 | 0.0 | 6.4 | 0.00 | 0.13 | 0.00 | 55 | 1016.6 |
| 20260508171006 | 23 | 190 | 0.0 | 6.4 | 0.00 | 0.13 | 0.00 | 55 | 1016.8 |
| 20260508170507 | 23 | 169 | 0.0 | 6.4 | 0.00 | 0.13 | 0.00 | 55 | 1016.8 |
| 20260508170020 | 23 | 148 | 0.0 | 6.4 | 0.00 | 0.13 | 0.00 | 58 | 1016.6 |
| 20260508165507 | 23 | 110 | 1.6 | 8.0 | 0.00 | 0.13 | 0.00 | 54 | 1016.5 |
| 20260508165008 | 23 | 89 | 0.0 | 8.0 | 0.00 | 0.13 | 0.00 | 52 | 1016.6 |
| 20260508164522 | 23 | 46 | 1.6 | 8.0 | 0.00 | 0.13 | 0.00 | 51 | 1016.8 |
| 20260508164009 | 23 | 113 | 0.0 | 6.4 | 0.00 | 0.13 | 0.00 | 53 | 1016.9 |
| 20260508163505 | 23 | 71 | 3.2 | 6.4 | 0.00 | 0.13 | 0.00 | 53 | 1017.0 |
| 20260508163012 | 22 | 163 | 0.0 | 6.4 | 0.00 | 0.13 | 0.00 | 53 | 1017.0 |
| 20260508162505 | 22 | 118 | 0.0 | 6.4 | 0.00 | 0.13 | 0.00 | 51 | 1017.1 |
| 20260508162004 | 22 | 88 | 1.6 | 6.4 | 0.00 | 0.13 | 0.00 | 50 | 1017.2 |
| 20260508161514 | 22 | 59 | 0.0 | 4.8 | 0.00 | 0.13 | 0.00 | 53 | 1017.2 |
| 20260508161004 | 22 | 221 | 1.6 | 6.4 | 0.00 | 0.13 | 0.00 | 53 | 1017.4 |
| 20260508160503 | 21 | 71 | 1.6 | 12.9 | 0.00 | 0.13 | 0.00 | 54 | 1017.5 |
| 20260508160016 | 21 | 217 | 1.6 | 12.9 | 0.00 | 0.13 | 0.00 | 50 | 1017.5 |
| 20260508155508 | 21 | 140 | 1.6 | 9.7 | 0.00 | 0.13 | 0.00 | 52 | 1017.6 |
| 20260508155008 | 21 | 314 | 0.0 | 9.7 | 0.00 | 0.13 | 0.00 | 52 | 1017.8 |
| 20260508154522 | 21 | 123 | 1.6 | 6.4 | 0.00 | 0.13 | 0.00 | 54 | 1017.7 |
| 20260508154011 | 21 | 85 | 1.6 | 12.9 | 0.00 | 0.13 | 0.00 | 54 | 1017.7 |
| 20260508153508 | 21 | 64 | 0.0 | 12.9 | 0.00 | 0.13 | 0.00 | 53 | 1017.8 |
| 20260508153047 | 21 | 67 | 0.0 | 6.4 | 0.00 | 0.13 | 0.00 | 51 | 1017.7 |
| 20260508152509 | 21 | 65 | 1.6 | 9.7 | 0.00 | 0.13 | 0.00 | 51 | 1017.7 |
| 20260508152005 | 21 | 71 | 3.2 | 9.7 | 0.00 | 0.13 | 0.00 | 50 | 1017.8 |
| 20260508151508 | 21 | 161 | 0.0 | 11.3 | 0.00 | 0.13 | 0.00 | 53 | 1017.7 |
| 20260508151003 | 20 | 92 | 3.2 | 11.3 | 0.00 | 0.13 | 0.00 | 51 | 1017.7 |